When you browse on this site, cookies collect data to enhance your experience and personalize the content and advertising you see.
Visit our Privacy Policy to learn more. By continuing to use the site, you agree to this use of cookies and data.
  • en Suisse
  • Liste des pays
  • À 7 jours
  • Température de l'eau
  • Carte satellitaire
  • Carte météo
  • Widgets météo
  • user-avatar
    Se connecter

    Météo par heure à Platonivka

    Ce jour, 20 Juillet, Samedi

    Heure Température Précipitation Vent Pression Humidité
    00:00 +20°C° 0 mm 1 m/s 754 mmHg 73%
    01:00 +19°C° 0 mm 1 m/s 754 mmHg 75%
    02:00 +19°C° 0 mm 1 m/s 754 mmHg 78%
    03:00 +18°C° 0 mm 1 m/s 754 mmHg 79%
    04:00 +19°C° 0 mm 1 m/s 754 mmHg 79%
    05:00 +19°C° 0 mm 1 m/s 755 mmHg 79%
    06:00 +19°C° 0 mm 1 m/s 755 mmHg 79%
    07:00 +21°C° 0 mm 1 m/s 755 mmHg 72%
    08:00 +23°C° 0 mm 1 m/s 756 mmHg 64%
    09:00 +25°C° 0 mm 1 m/s 756 mmHg 57%
    10:00 +26°C° 0 mm 2 m/s 756 mmHg 51%
    11:00 +27°C° 0 mm 2 m/s 756 mmHg 45%
    12:00 +28°C° 0 mm 2 m/s 756 mmHg 39%
    13:00 +29°C° 0 mm 2 m/s 755 mmHg 38%
    14:00 +29°C° 0 mm 2 m/s 755 mmHg 36%
    15:00 +30°C° 0 mm 2 m/s 755 mmHg 35%
    16:00 +30°C° 0 mm 2 m/s 755 mmHg 36%
    17:00 +30°C° 0 mm 2 m/s 755 mmHg 37%
    18:00 +30°C° 0 mm 2 m/s 755 mmHg 38%
    19:00 +28°C° 0 mm 2 m/s 755 mmHg 43%
    20:00 +26°C° 0 mm 2 m/s 755 mmHg 49%
    21:00 +24°C° 0 mm 2 m/s 755 mmHg 55%
    22:00 +23°C° 0 mm 1 m/s 756 mmHg 57%
    23:00 +23°C° 0 mm 1 m/s 756 mmHg 60%

    Demain, 21 Juillet, Dimanche

    Heure Température Précipitation Vent Pression Humidité
    00:00 +22°C° 0 mm 1 m/s 756 mmHg 62%
    01:00 +21°C° 0 mm 1 m/s 756 mmHg 65%
    02:00 +19°C° 0 mm 0 m/s 756 mmHg 67%
    03:00 +18°C° 0 mm 0 m/s 756 mmHg 70%
    04:00 +19°C° 0 mm 0 m/s 756 mmHg 70%
    05:00 +19°C° 0 mm 0 m/s 756 mmHg 70%
    06:00 +21°C° 0 mm 1 m/s 756 mmHg 70%
    07:00 +23°C° 0 mm 1 m/s 756 mmHg 64%
    08:00 +25°C° 0 mm 1 m/s 756 mmHg 57%
    09:00 +27°C° 0 mm 1 m/s 756 mmHg 51%
    10:00 +28°C° 0 mm 1 m/s 756 mmHg 47%
    11:00 +29°C° 0 mm 1 m/s 755 mmHg 43%
    12:00 +29°C° 0 mm 1 m/s 755 mmHg 39%
    13:00 +30°C° 0 mm 1 m/s 755 mmHg 38%
    14:00 +30°C° 0 mm 1 m/s 755 mmHg 38%
    15:00 +30°C° 0 mm 1 m/s 755 mmHg 37%
    16:00 +29°C° 0 mm 1 m/s 755 mmHg 41%
    17:00 +29°C° 0 mm 2 m/s 755 mmHg 44%
    18:00 +28°C° 0 mm 2 m/s 755 mmHg 47%
    19:00 +27°C° 0 mm 2 m/s 755 mmHg 49%
    20:00 +26°C° 0 mm 1 m/s 755 mmHg 50%
    21:00 +24°C° 0 mm 1 m/s 754 mmHg 52%
    22:00 +23°C° 0 mm 1 m/s 754 mmHg 55%
    23:00 +23°C° 0 mm 1 m/s 754 mmHg 57%

    Après-demain, 22 Juillet, Lundi

    Heure Température Précipitation Vent Pression Humidité
    00:00 +20°C° 0 mm 0 m/s 754 mmHg 60%
    01:00 +19°C° 0 mm 0 m/s 754 mmHg 62%
    02:00 +19°C° 0 mm 0 m/s 754 mmHg 63%
    03:00 +19°C° 0 mm 0 m/s 754 mmHg 64%
    04:00 +19°C° 0 mm 0 m/s 754 mmHg 65%
    05:00 +19°C° 0 mm 0 m/s 754 mmHg 66%
    06:00 +20°C° 0 mm 0 m/s 754 mmHg 66%
    07:00 +22°C° 0 mm 0 m/s 754 mmHg 60%
    08:00 +24°C° 0 mm 0 m/s 754 mmHg 54%
    09:00 +26°C° 0 mm 0 m/s 754 mmHg 47%
    10:00 +27°C° 0 mm 0 m/s 754 mmHg 44%
    11:00 +30°C° 0 mm 1 m/s 754 mmHg 41%
    12:00 +31°C° 0 mm 1 m/s 754 mmHg 38%
    13:00 +31°C° 0 mm 1 m/s 754 mmHg 38%
    14:00 +31°C° 0 mm 1 m/s 753 mmHg 37%
    15:00 +31°C° 0 mm 1 m/s 753 mmHg 37%
    16:00 +31°C° 0 mm 2 m/s 753 mmHg 40%
    17:00 +30°C° 0 mm 2 m/s 753 mmHg 44%
    18:00 +30°C° 0 mm 2 m/s 753 mmHg 47%
    19:00 +28°C° 0 mm 2 m/s 752 mmHg 48%
    20:00 +27°C° 0 mm 1 m/s 752 mmHg 50%
    21:00 +26°C° 0 mm 1 m/s 752 mmHg 51%
    22:00 +25°C° 0 mm 2 m/s 752 mmHg 52%
    23:00 +25°C° 0 mm 2 m/s 752 mmHg 53%

    23 Juillet, Mardi

    Heure Température Précipitation Vent Pression Humidité
    00:00 +24°C° 0 mm 2 m/s 752 mmHg 54%
    01:00 +24°C° 0 mm 2 m/s 752 mmHg 55%
    02:00 +24°C° 0 mm 2 m/s 752 mmHg 56%
    03:00 +23°C° 0 mm 2 m/s 751 mmHg 57%
    04:00 +23°C° 0 mm 2 m/s 751 mmHg 61%
    05:00 +23°C° 0 mm 2 m/s 751 mmHg 66%
    06:00 +21°C° 0 mm 2 m/s 751 mmHg 70%
    07:00 +24°C° 0 mm 2 m/s 751 mmHg 64%
    08:00 +26°C° 0 mm 3 m/s 751 mmHg 57%
    09:00 +28°C° 0 mm 3 m/s 751 mmHg 51%
    10:00 +30°C° 0 mm 3 m/s 751 mmHg 46%
    11:00 +32°C° 0 mm 4 m/s 751 mmHg 41%
    12:00 +33°C° 0 mm 4 m/s 751 mmHg 37%
    13:00 +32°C° 0 mm 4 m/s 750 mmHg 40%
    14:00 +30°C° 0 mm 3 m/s 750 mmHg 44%
    15:00 +29°C° 0 mm 3 m/s 750 mmHg 48%
    16:00 +28°C° 0.1 mm 3 m/s 750 mmHg 52%
    17:00 +27°C° 0.1 mm 3 m/s 750 mmHg 57%
    18:00 +26°C° 0.1 mm 4 m/s 750 mmHg 62%
    19:00 +25°C° 0.1 mm 3 m/s 750 mmHg 68%
    20:00 +24°C° 0.1 mm 3 m/s 750 mmHg 73%
    21:00 +23°C° 0.1 mm 2 m/s 750 mmHg 79%
    22:00 +21°C° 0 mm 2 m/s 750 mmHg 80%
    23:00 +22°C° 0 mm 1 m/s 750 mmHg 81%

    24 Juillet, Mercredi

    Heure Température Précipitation Vent Pression Humidité
    00:00 +21°C° 0 mm 1 m/s 750 mmHg 82%
    01:00 +21°C° 0.3 mm 1 m/s 750 mmHg 84%
    02:00 +21°C° 0.3 mm 1 m/s 750 mmHg 85%
    03:00 +20°C° 0.3 mm 1 m/s 750 mmHg 87%
    04:00 +20°C° 0.3 mm 1 m/s 750 mmHg 87%
    05:00 +20°C° 0.3 mm 2 m/s 750 mmHg 87%
    06:00 +20°C° 0.3 mm 2 m/s 750 mmHg 87%
    07:00 +21°C° 0.1 mm 2 m/s 750 mmHg 83%
    08:00 +23°C° 0.1 mm 2 m/s 750 mmHg 79%
    09:00 +24°C° 0.1 mm 2 m/s 750 mmHg 75%
    10:00 +22°C° 0.7 mm 3 m/s 750 mmHg 78%
    11:00 +22°C° 0.7 mm 3 m/s 750 mmHg 82%
    12:00 +21°C° 0.7 mm 4 m/s 750 mmHg 86%
    13:00 +22°C° 0.5 mm 4 m/s 750 mmHg 81%
    14:00 +23°C° 0.5 mm 4 m/s 750 mmHg 77%
    15:00 +25°C° 0.5 mm 4 m/s 750 mmHg 72%
    16:00 +23°C° 0.1 mm 4 m/s 750 mmHg 75%
    17:00 +23°C° 0.1 mm 4 m/s 750 mmHg 78%
    18:00 +22°C° 0.1 mm 4 m/s 750 mmHg 81%
    19:00 +22°C° 0.3 mm 3 m/s 749 mmHg 85%
    20:00 +21°C° 0.3 mm 3 m/s 749 mmHg 89%
    21:00 +20°C° 0.3 mm 3 m/s 749 mmHg 93%
    22:00 +20°C° 1.1 mm 2 m/s 749 mmHg 93%
    23:00 +20°C° 1.1 mm 2 m/s 749 mmHg 93%

    25 Juillet, Jeudi

    Heure Température Précipitation Vent Pression Humidité
    00:00 +20°C° 1.1 mm 2 m/s 749 mmHg 93%
    01:00 +20°C° 1 mm 3 m/s 749 mmHg 92%
    02:00 +20°C° 1 mm 3 m/s 749 mmHg 92%
    03:00 +20°C° 1 mm 4 m/s 749 mmHg 91%
    04:00 +20°C° 0.2 mm 4 m/s 748 mmHg 90%
    05:00 +20°C° 0.2 mm 3 m/s 748 mmHg 89%
    06:00 +20°C° 0.2 mm 3 m/s 748 mmHg 89%
    07:00 +20°C° 0.3 mm 4 m/s 748 mmHg 87%
    08:00 +21°C° 0.3 mm 4 m/s 748 mmHg 85%
    09:00 +21°C° 0.3 mm 4 m/s 749 mmHg 83%
    10:00 +22°C° 0.2 mm 5 m/s 748 mmHg 80%
    11:00 +23°C° 0.2 mm 5 m/s 748 mmHg 77%
    12:00 +25°C° 0.2 mm 5 m/s 748 mmHg 73%
    13:00 +26°C° 0.4 mm 6 m/s 749 mmHg 69%
    14:00 +27°C° 0.4 mm 7 m/s 749 mmHg 64%
    15:00 +28°C° 0.4 mm 8 m/s 749 mmHg 60%
    16:00 +26°C° 0.4 mm 7 m/s 749 mmHg 65%
    17:00 +24°C° 0.4 mm 7 m/s 749 mmHg 71%
    18:00 +22°C° 0.4 mm 6 m/s 749 mmHg 76%
    19:00 +22°C° 0.1 mm 6 m/s 750 mmHg 77%
    20:00 +21°C° 0.1 mm 5 m/s 750 mmHg 79%
    21:00 +21°C° 0.1 mm 5 m/s 750 mmHg 80%
    22:00 +20°C° 0.1 mm 5 m/s 750 mmHg 83%
    23:00 +20°C° 0.1 mm 5 m/s 750 mmHg 85%
    Voir plus